This is the latest recevied weather packets stored in our database for station/object KE0TNI-13. If no packets are shown the sender has not sent any weather packets the latest 10 day(s).
| Time | Temp. | Humidity | Pressure | Rain* | Wind** | Luminosity | Snow |
|---|---|---|---|---|---|---|---|
| 1777869545 | 5.56° C | 48% | 1019.1 hPa | 0 mm | - | 0 W/m² | - |
| 1777869242 | 5.56° C | 49% | 1018.8 hPa | 0 mm | - | 0 W/m² | - |
| 1777868940 | 5.56° C | 49% | 1018.7 hPa | 0 mm | - | 0 W/m² | - |
| 1777868635 | 5.56° C | 49% | 1018.9 hPa | 0 mm | - | 0 W/m² | - |
| 1777868332 | 5.56° C | 49% | 1019.1 hPa | 0 mm | - | 0 W/m² | - |
| 1777868028 | 5.56° C | 50% | 1018.8 hPa | 0 mm | - | 0 W/m² | - |
| 1777867724 | 5.56° C | 50% | 1018.8 hPa | 0 mm | - | 0 W/m² | - |
| 1777867422 | 5.56° C | 50% | 1018.7 hPa | 0 mm | - | 0 W/m² | - |
| 1777867118 | 5.56° C | 53% | 1018.9 hPa | 0 mm | - | 0 W/m² | - |
| 1777866816 | 5.56° C | 52% | 1019.3 hPa | 0 mm | - | 0 W/m² | - |
| 1777866512 | 5.56° C | 52% | 1018.9 hPa | 0 mm | - | 0 W/m² | - |
| 1777866210 | 5.56° C | 51% | 1018.9 hPa | 0 mm | - | 0 W/m² | - |
| 1777865907 | 5.56° C | 52% | 1018.9 hPa | 0 mm | - | 0 W/m² | - |
| 1777865605 | 5.56° C | 52% | 1019.1 hPa | 0 mm | - | 0 W/m² | - |
| 1777865301 | 5.56° C | 52% | 1018.9 hPa | 0 mm | - | 0 W/m² | - |
| 1777864999 | 6.11° C | 51% | 1018.9 hPa | 0 mm | - | 0 W/m² | - |
| 1777864695 | 6.11° C | 50% | 1018.9 hPa | 0 mm | - | 0 W/m² | - |
| 1777864393 | 6.11° C | 49% | 1018.9 hPa | 0 mm | - | 0 W/m² | - |
| 1777864089 | 6.11° C | 50% | 1018.9 hPa | 0 mm | - | 0 W/m² | - |
| 1777863786 | 6.11° C | 49% | 1019.1 hPa | 0 mm | - | 0 W/m² | - |
| 1777863482 | 6.67° C | 50% | 1018.9 hPa | 0 mm | - | 0 W/m² | - |
| 1777863179 | 6.67° C | 47% | 1018.8 hPa | 0 mm | - | 0 W/m² | - |
| 1777862875 | 6.67° C | 47% | 1019.1 hPa | 0 mm | - | 0 W/m² | - |
| 1777862572 | 7.22° C | 48% | 1018.8 hPa | 0 mm | - | 0 W/m² | - |
| 1777862269 | 7.22° C | 46% | 1018.8 hPa | 0 mm | - | 0 W/m² | - |
* Rain latest hour (hover to see other rain measurements)
** Current wind speed in m/s (hover to see current wind gust speed)